[[{"header":{"parameterUnit":"m.s-1","parameterCategory":1,"la1":30.2991,"la2":30.254,"lo1":-89.0895,"lo2":-89.0444,"dy":0.0017,"dx":0.0017,"nx":28,"ny":28,"refTime":"2024-03-17T09:00:00:Z","depth":0,"parameterNumber":2,"parameterNumberName":"U-component_of_WINDS"},"data":[0,0,0,0,0,0,0,0,0,0,0,0,0,0,0,0,0,0,0,0,0,0,0,0,0,0,0,0,0,0,0,0,0,0,0,0,0,0,0,0,0,0,0,0,0,0,0,0,0,0,0,0,0,0,0,0,0,0,-0.821,-0.821,0,-0.8297,-0.8298,-0.8299,-0.8302,-0.83,-0.8299,-0.8298,-0.8388,-0.8391,-0.8395,0,0,0,0,0,0,0,0,0,0,0,0,0,-0.8045,-0.8048,-0.8209,-0.8211,-0.8212,-0.8297,-0.8298,-0.8299,-0.8302,-0.83,-0.8299,-0.8298,-0.8387,-0.8391,-0.8395,0,0,0,0,0,0,0,0,0,0,0,0,0,-0.8122,-0.8049,-0.8209,-0.8223,-0.8225,-0.8297,-0.8298,-0.83,-0.8302,-0.83,-0.8299,-0.8297,-0.8386,-0.8391,-0.8396,-0.8459,0,0,-0.8411,-0.8413,0,0,0,0,0,0,0,0,-0.8118,-0.8129,-0.822,-0.8222,-0.8225,-0.8287,-0.8273,-0.8353,-0.8302,-0.8273,-0.8298,-0.8297,-0.8356,-0.8363,-0.8383,-0.8463,-0.8467,-0.8412,-0.8415,-0.8417,-0.8418,0,0,0,0,0,0,0,-0.8113,-0.8125,-0.8244,-0.8221,-0.8224,-0.8225,-0.8234,-0.8288,-0.8322,-0.8275,-0.8276,-0.8286,-0.8357,-0.8378,-0.8385,-0.8468,-0.8412,-0.8416,-0.8419,-0.8421,-0.8605,-0.8607,0,0,0,0,0,0,-0.8104,-0.812,-0.8241,-0.8247,-0.8166,-0.8229,-0.824,-0.8268,-0.8322,-0.8328,-0.8287,-0.8286,-0.837,-0.8379,-0.8388,-0.8467,-0.8417,-0.8422,-0.8425,-0.8603,-0.8606,-0.8608,0,0,0,0,0,0,-0.8101,-0.8115,-0.8238,-0.8184,-0.8199,-0.8234,-0.8266,-0.8271,-0.8293,-0.8331,-0.8337,-0.8303,-0.8369,-0.8381,-0.8442,-0.847,-0.8424,-0.8429,-0.8601,-0.8604,-0.8607,-0.8623,0,0,0,0,0,0,-0.8096,-0.8114,-0.8139,-0.8184,-0.8202,-0.829,-0.8268,-0.8274,-0.8301,-0.83,-0.8347,-0.8353,-0.8369,-0.8434,-0.8447,-0.8476,-0.8433,-0.8599,-0.8602,-0.8606,-0.8621,-0.8626,-0.8632,0,0,0,0,0,-0.809,-0.814,-0.814,-0.8154,-0.8234,-0.8291,-0.8302,-0.8319,-0.8303,-0.8329,-0.8353,-0.8352,-0.8464,-0.844,-0.8454,-0.8486,-0.8597,-0.8601,-0.8605,-0.8618,-0.8625,-0.8631,0,0,0,0,0,0,-0.8097,-0.8146,-0.8147,-0.8212,-0.8248,-0.8292,-0.8324,-0.8326,-0.8366,-0.8363,-0.8383,-0.8393,-0.8453,-0.8475,-0.8447,-0.855,-0.8529,-0.8536,-0.8534,-0.8541,-0.8546,-0.854,-0.8437,0,0,0,0,0,-0.8106,-0.8149,-0.8189,-0.8243,-0.8261,-0.8289,-0.8315,-0.8325,-0.8362,-0.8377,-0.8406,-0.8442,-0.8486,-0.8514,-0.8556,-0.8623,-0.8634,-0.8652,-0.8657,-0.8661,-0.8668,-0.8705,-0.8714,-0.8621,-0.8621,-0.8621,0,0,-0.8125,-0.8157,-0.8183,-0.8245,-0.8274,-0.8318,-0.8302,-0.8349,-0.8382,-0.8384,-0.8444,-0.8466,-0.8507,-0.8571,-0.8601,-0.8591,-0.8695,-0.8667,-0.867,-0.8674,-0.871,-0.8719,-0.8727,-0.8624,-0.8623,-0.8623,0,0,-0.8183,-0.8211,-0.826,-0.8289,-0.8332,-0.835,-0.8362,-0.8405,-0.842,-0.848,-0.8483,-0.8522,-0.8596,-0.8626,-0.8651,-0.8719,-0.872,-0.8732,-0.8761,-0.8797,-0.8805,-0.8811,-0.8836,-0.8845,-0.8738,-0.8738,-0.8738,0,-0.8202,-0.8269,-0.8285,-0.8332,-0.836,-0.8363,-0.8413,-0.844,-0.8494,-0.8513,-0.8502,-0.8595,-0.8623,-0.8695,-0.8711,-0.8731,-0.8745,-0.8728,-0.8802,-0.8809,-0.8815,-0.884,-0.8849,-0.8739,-0.8739,-0.8739,-0.8739,0,-0.829,-0.8336,-0.837,-0.8422,-0.8453,-0.8501,-0.8525,-0.8554,-0.8561,-0.8581,-0.8641,-0.8675,-0.8724,-0.8741,-0.8748,-0.8813,-0.8806,-0.8798,-0.8778,-0.8825,-0.8848,-0.8858,-0.8741,-0.8741,-0.874,-0.874,0,0,-0.8356,-0.8417,-0.8429,-0.8453,-0.85,-0.8536,-0.8584,-0.8632,-0.8657,-0.8694,-0.8735,-0.8798,-0.8791,-0.8819,-0.8829,-0.8861,-0.8913,-0.8849,-0.885,-0.8861,-0.8988,-0.8994,-0.9005,-0.8913,-0.8915,-0.8916,-0.8985,0,-0.842,-0.8506,-0.8522,-0.8596,-0.8639,-0.8643,-0.8685,-0.8718,-0.8737,-0.8776,-0.8797,-0.8842,-0.8828,-0.8845,-0.8876,-0.89,-0.8939,-0.8895,-0.8952,-0.8954,-0.8943,-0.9017,-0.9024,-0.9087,-0.8994,-0.8995,-0.8996,0,-0.8507,-0.8546,-0.8626,-0.8667,-0.8686,-0.8723,-0.8768,-0.8805,-0.8843,-0.8855,-0.8886,-0.8893,-0.8942,-0.8918,-0.8987,-0.8957,-0.8981,-0.8996,-0.8999,-0.9006,-0.8979,-0.9027,-0.9107,-0.9117,-0.901,-0.9009,-0.9008,0,-0.8549,-0.8621,-0.8678,-0.8699,-0.8748,-0.8775,-0.8796,-0.8833,-0.8861,-0.89,-0.8918,-0.8962,-0.8987,-0.9021,-0.9039,-0.902,-0.9107,-0.9085,-0.9119,-0.9118,-0.9139,-0.9137,-0.9225,-0.9151,-0.9151,-0.9151,-0.9151,0,-0.862,-0.8668,-0.8698,-0.8733,-0.8787,-0.8804,-0.8858,-0.8879,-0.8911,-0.8951,-0.8956,-0.8992,-0.9014,-0.9053,-0.9068,-0.9123,-0.9134,-0.9145,-0.9149,-0.9146,-0.9144,-0.9163,-0.9159,-0.9154,-0.9153,-0.9153,-0.9152,0,-0.8677,-0.8698,-0.8761,-0.8802,-0.8814,-0.8852,-0.8888,-0.8922,-0.894,-0.899,-0.9003,-0.9032,-0.9079,-0.91,-0.9158,-0.9167,-0.9231,-0.9231,-0.9218,-0.922,-0.9253,-0.925,-0.9357,-0.9372,-0.9287,-0.9288,-0.9289,0,-0.8721,-0.8759,-0.8804,-0.8831,-0.8853,-0.8896,-0.8925,-0.8942,-0.8971,-0.9017,-0.9046,-0.9093,-0.9132,-0.9207,-0.9233,-0.9277,-0.9279,-0.9313,-0.9286,-0.9281,-0.9281,-0.9279,-0.9283,-0.9319,-0.9319,-0.932,-0.9321,0,-0.8798,-0.8807,-0.8848,-0.8892,-0.8926,-0.8962,-0.8997,-0.9018,-0.9041,-0.9074,-0.9122,-0.9152,-0.9211,-0.9258,-0.9303,-0.9326,-0.9328,-0.9329,-0.9339,-0.9337,-0.9329,-0.9335,-0.9233,-0.9327,-0.9326,-0.9326,-0.9325,-0.9325,-0.8852,-0.8885,-0.8922,-0.8967,-0.8995,-0.9028,-0.9062,-0.9085,-0.9125,-0.9175,-0.9182,-0.9234,-0.927,-0.9332,-0.9356,-0.9396,-0.9388,-0.9403,-0.9407,-0.9411,-0.9413,-0.9321,-0.9404,-0.9404,-0.9404,-0.9404,-0.9404,0,-0.893,-0.8954,-0.8995,-0.9044,-0.9079,-0.9077,-0.9115,-0.9145,-0.9191,-0.9224,-0.9262,-0.9317,-0.9363,-0.9392,-0.9438,-0.9464,-0.9466,-0.9476,-0.9475,-0.948,-0.9417,-0.9404,-0.9474,-0.9474,-0.9474,-0.9473,-0.9473,-0.9473,-0.8975,-0.9032,-0.9045,-0.9116,-0.9139,-0.919,-0.9212,-0.9242,-0.9269,-0.9331,-0.9368,-0.9387,-0.9419,-0.9467,-0.9508,-0.9516,-0.9533,-0.9543,-0.955,-0.9492,-0.9484,-0.9478,-0.9465,-0.9546,-0.9546,-0.961,-0.961,-0.9611]},{"header":{"parameterUnit":"m.s-1","parameterCategory":1,"la1":30.2991,"la2":30.254,"lo1":-89.0895,"lo2":-89.0444,"dy":0.0017,"dx":0.0017,"nx":28,"ny":28,"refTime":"2024-03-17T09:00:00:Z","depth":0,"parameterNumber":3,"parameterNumberName":"V-component_of_WINDS"},"data":[0,0,0,0,0,0,0,0,0,0,0,0,0,0,0,0,0,0,0,0,0,0,0,0,0,0,0,0,0,0,0,0,0,0,0,0,0,0,0,0,0,0,0,0,0,0,0,0,0,0,0,0,0,0,0,0,0,0,-5.4551,-5.4552,0,-5.4658,-5.4659,-5.466,-5.461,-5.4608,-5.4605,-5.4602,-5.4705,-5.471,-5.4715,0,0,0,0,0,0,0,0,0,0,0,0,0,-5.4297,-5.4302,-5.455,-5.4552,-5.4553,-5.4657,-5.4659,-5.466,-5.4611,-5.4607,-5.4604,-5.4601,-5.4703,-5.4709,-5.4715,0,0,0,0,0,0,0,0,0,0,0,0,0,-5.4406,-5.4304,-5.455,-5.4541,-5.4542,-5.4657,-5.4659,-5.4661,-5.4611,-5.4607,-5.4603,-5.46,-5.4701,-5.4708,-5.4716,-5.4845,0,0,-5.474,-5.4743,0,0,0,0,0,0,0,0,-5.44,-5.4415,-5.4541,-5.4542,-5.4543,-5.4617,-5.4607,-5.4722,-5.4612,-5.4585,-5.4602,-5.4598,-5.4678,-5.4688,-5.4716,-5.4849,-5.4854,-5.4741,-5.4745,-5.4749,-5.4751,0,0,0,0,0,0,0,-5.4392,-5.441,-5.4592,-5.4543,-5.4544,-5.453,-5.4541,-5.4628,-5.4652,-5.4587,-5.4583,-5.4597,-5.4678,-5.4709,-5.4718,-5.4855,-5.4741,-5.4747,-5.4752,-5.4755,-5.51,-5.5104,0,0,0,0,0,0,-5.4386,-5.4404,-5.4589,-5.4596,-5.446,-5.4538,-5.455,-5.4597,-5.4651,-5.4656,-5.46,-5.4594,-5.4697,-5.4709,-5.4722,-5.4876,-5.4749,-5.4756,-5.4761,-5.5095,-5.5101,-5.5105,0,0,0,0,0,0,-5.4381,-5.4403,-5.4585,-5.4499,-5.4521,-5.4546,-5.4599,-5.4601,-5.4632,-5.4662,-5.4665,-5.4628,-5.4695,-5.4711,-5.4815,-5.4879,-5.476,-5.4767,-5.509,-5.5097,-5.5103,-5.5186,0,0,0,0,0,0,-5.4374,-5.4401,-5.4452,-5.4501,-5.4526,-5.4679,-5.4603,-5.4606,-5.4647,-5.464,-5.4689,-5.4693,-5.4693,-5.4804,-5.4823,-5.4888,-5.4773,-5.5084,-5.5093,-5.5101,-5.5178,-5.5195,-5.5209,0,0,0,0,0,-5.4365,-5.4469,-5.4455,-5.4477,-5.459,-5.4682,-5.4697,-5.4696,-5.4652,-5.4702,-5.4721,-5.4691,-5.4869,-5.4815,-5.4836,-5.4904,-5.508,-5.5091,-5.51,-5.5171,-5.5191,-5.5209,0,0,0,0,0,0,-5.4423,-5.4475,-5.446,-5.4583,-5.4629,-5.4674,-5.4737,-5.4718,-5.4776,-5.4767,-5.4762,-5.4773,-5.4882,-5.4903,-5.4842,-5.5031,-5.4967,-5.4982,-5.5014,-5.5034,-5.5049,-5.5042,-5.4779,0,0,0,0,0,-5.4451,-5.4524,-5.4564,-5.4669,-5.4694,-5.4712,-5.4752,-5.4748,-5.4794,-5.4813,-5.4839,-5.4884,-5.4949,-5.4993,-5.5055,-5.5181,-5.519,-5.5238,-5.5254,-5.5266,-5.5279,-5.5348,-5.537,-5.5138,-5.5138,-5.5138,0,0,-5.4508,-5.4546,-5.4591,-5.4682,-5.4717,-5.4792,-5.4728,-5.4809,-5.4863,-5.4824,-5.4925,-5.4947,-5.4995,-5.5112,-5.5164,-5.5133,-5.5345,-5.5279,-5.5289,-5.5295,-5.536,-5.5382,-5.5402,-5.5145,-5.5144,-5.5143,0,0,-5.4651,-5.4687,-5.4779,-5.4816,-5.4871,-5.4883,-5.4905,-5.4954,-5.4967,-5.5069,-5.5042,-5.5105,-5.5219,-5.5255,-5.5288,-5.5447,-5.5422,-5.5467,-5.5549,-5.5617,-5.5635,-5.5651,-5.5708,-5.5728,-5.5479,-5.548,-5.548,0,-5.4714,-5.4827,-5.4828,-5.4912,-5.4952,-5.4924,-5.5016,-5.5051,-5.5123,-5.5151,-5.5115,-5.5259,-5.5289,-5.5414,-5.5453,-5.5481,-5.5505,-5.5461,-5.5633,-5.5649,-5.5664,-5.5718,-5.5739,-5.5485,-5.5484,-5.5484,-5.5483,0,-5.4902,-5.4981,-5.5048,-5.5122,-5.517,-5.5258,-5.527,-5.5318,-5.5311,-5.5326,-5.543,-5.5466,-5.5536,-5.5565,-5.5557,-5.5689,-5.5668,-5.5633,-5.5568,-5.5691,-5.5742,-5.5762,-5.5492,-5.549,-5.5489,-5.5488,0,0,-5.5083,-5.5158,-5.5183,-5.5217,-5.5276,-5.5336,-5.5422,-5.5493,-5.5535,-5.5585,-5.5656,-5.5754,-5.5723,-5.576,-5.5756,-5.5815,-5.5939,-5.5773,-5.5774,-5.5803,-5.6087,-5.6113,-5.6137,-5.5923,-5.5927,-5.593,-5.6083,0,-5.523,-5.5384,-5.5388,-5.5528,-5.5601,-5.5576,-5.565,-5.5694,-5.5711,-5.5773,-5.5789,-5.586,-5.5812,-5.5835,-5.5893,-5.5912,-5.5996,-5.5901,-5.5988,-5.5991,-5.5977,-5.6164,-5.6192,-5.6334,-5.6103,-5.6106,-5.6108,0,-5.5422,-5.5482,-5.5631,-5.5682,-5.5712,-5.578,-5.5846,-5.5907,-5.5955,-5.5963,-5.6007,-5.5994,-5.6081,-5.6014,-5.6132,-5.6068,-5.6103,-5.6118,-5.6124,-5.6132,-5.6057,-5.6177,-5.638,-5.6401,-5.614,-5.6137,-5.6135,0,-5.554,-5.5658,-5.5762,-5.5792,-5.5854,-5.5902,-5.5929,-5.5975,-5.6018,-5.6074,-5.6102,-5.6167,-5.6202,-5.6252,-5.6257,-5.6208,-5.6376,-5.631,-5.6384,-5.6384,-5.642,-5.6418,-5.6632,-5.6443,-5.6443,-5.6442,-5.6442,0,-5.5703,-5.5795,-5.5817,-5.5881,-5.5983,-5.5986,-5.6086,-5.6109,-5.615,-5.6217,-5.6198,-5.626,-5.6263,-5.6327,-5.6331,-5.6428,-5.6444,-5.6452,-5.6452,-5.6454,-5.6453,-5.6477,-5.6467,-5.6448,-5.6447,-5.6446,-5.6445,0,-5.5852,-5.587,-5.5982,-5.6033,-5.6048,-5.6121,-5.6163,-5.6224,-5.6239,-5.6324,-5.6344,-5.6367,-5.6442,-5.6452,-5.6537,-5.654,-5.6658,-5.6647,-5.6642,-5.6641,-5.6714,-5.6707,-5.6951,-5.6984,-5.6774,-5.6776,-5.6777,0,-5.5955,-5.6026,-5.6085,-5.6131,-5.6162,-5.6234,-5.6279,-5.6284,-5.6331,-5.6394,-5.6446,-5.652,-5.6578,-5.6698,-5.6721,-5.6786,-5.6777,-5.6858,-5.6787,-5.6787,-5.6779,-5.6775,-5.6782,-5.6872,-5.6874,-5.6876,-5.6877,0,-5.6137,-5.6143,-5.621,-5.6281,-5.6336,-5.639,-5.6442,-5.6479,-5.6491,-5.6545,-5.6622,-5.6668,-5.6758,-5.683,-5.6896,-5.6921,-5.6902,-5.69,-5.6921,-5.6924,-5.6918,-5.6923,-5.668,-5.6894,-5.6893,-5.6891,-5.689,-5.689,-5.6266,-5.6328,-5.6381,-5.6456,-5.6497,-5.6546,-5.6606,-5.6631,-5.6696,-5.6772,-5.677,-5.6856,-5.6903,-5.6989,-5.702,-5.7085,-5.7058,-5.7088,-5.7095,-5.7103,-5.711,-5.6908,-5.7097,-5.7096,-5.7096,-5.7095,-5.7095,0,-5.6447,-5.6481,-5.655,-5.6625,-5.6684,-5.6664,-5.672,-5.677,-5.6847,-5.6894,-5.6953,-5.7042,-5.7113,-5.7143,-5.7212,-5.7258,-5.7251,-5.7276,-5.7272,-5.7279,-5.713,-5.7106,-5.7281,-5.7281,-5.7281,-5.7281,-5.7281,-5.7281,-5.6549,-5.6654,-5.6666,-5.679,-5.6822,-5.6908,-5.6942,-5.6987,-5.7025,-5.7127,-5.7187,-5.7207,-5.7247,-5.7319,-5.7382,-5.7389,-5.7415,-5.7445,-5.7447,-5.7308,-5.7289,-5.7271,-5.7248,-5.745,-5.7451,-5.759,-5.7592,-5.7593]}]]